Location: Fort Lauderdale
(26.1220°N, 80.1440°W)
Time: 00:36:50
(UTC-04:00)

OTV 5 (USA 277) - Visible Passes

Search period start: 23 October 2019 00:00
Search period end: 02 November 2019 00:00
Orbit: 310 x 324 km, 54.5° (Epoch: 17 October)

Date Brightness Start Highest point End Pass type
(mag) Time Alt. Az. Time Alt. Az. Time Alt. Az.
23 Oct ? 06:22:32 37° WNW 06:23:18 56° SW 06:25:57 10° SSE visible
24 Oct ? 06:37:40 14° WSW 06:37:41 14° WSW 06:39:11 10° SSW visible
24 Oct ? 19:41:12 10° S 19:43:04 21° SE 19:43:04 21° SE visible
25 Oct ? 19:55:05 10° SW 19:57:47 81° NW 19:58:05 66° NNE visible
26 Oct ? 20:10:18 10° W 20:12:22 19° NW 20:12:58 18° NNW visible
28 Oct ? 19:04:36 10° WSW 19:07:08 36° NW 19:09:42 10° NNE visible
29 Oct ? 19:20:51 10° WNW 19:21:49 11° NW 19:22:47 10° NNW visible
